FW2734 Weather Reports


time (UTC)temp
C
wind
direction
speed
KPH
gust
KPH
rain 1hr
cm
rain 24hr
cm
rain mn
cm
humidity
%
barometer
mb
20260503053551 12 166 3.2 9.7 0.00 0.00 0.00 64 1013.0
20260503053058 12 151 4.8 8.0 0.00 0.00 0.00 65 1012.9
20260503052550 12 155 1.6 6.4 0.00 0.00 0.00 65 1013.0
20260503052047 12 162 0.0 4.8 0.00 0.00 0.00 65 1013.0
20260503051559 12 169 0.0 6.4 0.00 0.00 0.00 66 1013.0
20260503051051 12 0 1.6 9.7 0.00 0.00 0.00 65 1013.1
20260503050548 12 0 3.2 9.7 0.00 0.00 0.00 65 1013.1
20260503050055 11 189 3.2 9.7 0.00 0.00 0.00 66 1013.1
20260503045548 11 198 1.6 6.4 0.00 0.00 0.00 68 1013.1
20260503045052 11 213 1.6 4.8 0.00 0.00 0.00 70 1013.1
20260503044615 10 233 0.0 4.8 0.00 0.00 0.00 72 1013.1
20260503044051 10 0 0.0 4.8 0.00 0.00 0.00 72 1013.0
20260503043547 10 214 1.6 4.8 0.00 0.00 0.00 71 1013.1
20260503043058 10 220 1.6 6.4 0.00 0.00 0.00 72 1013.1
20260503042551 10 0 1.6 6.4 0.00 0.00 0.00 72 1013.1
20260503042051 10 195 1.6 6.4 0.00 0.00 0.00 72 1013.2
20260503041612 10 216 1.6 6.4 0.00 0.00 0.00 73 1013.2
20260503041051 10 221 1.6 6.4 0.00 0.00 0.00 73 1013.2
20260503040551 10 203 0.0 6.4 0.00 0.00 0.00 74 1013.3
20260503040100 10 0 1.6 6.4 0.00 0.00 0.00 75 1013.2
20260503035553 10 197 0.0 4.8 0.00 0.00 0.00 75 1013.3
20260503035048 10 0 0.0 4.8 0.00 0.00 0.00 75 1013.2
20260503034552 10 199 0.0 4.8 0.00 0.00 0.00 76 1013.3
20260503034048 10 179 0.0 8.0 0.00 0.00 0.00 76 1013.2
20260503033547 10 158 0.0 8.0 0.00 0.00 0.00 76 1013.2
20260503033114 10 196 0.0 8.0 0.00 0.00 0.00 76 1013.2
20260503032551 10 0 0.0 3.2 0.00 0.00 0.00 76 1013.2
20260503032048 10 0 0.0 4.8 0.00 0.00 0.00 75 1013.3
20260503031553 10 0 0.0 4.8 0.00 0.00 0.00 75 1013.3
20260503031051 11 0 1.6 4.8 0.00 0.00 0.00 74 1013.3
20260503030552 11 193 0.0 6.4 0.00 0.00 0.00 74 1013.3
20260503030107 11 0 0.0 6.4 0.00 0.00 0.00 73 1013.3
20260503025549 11 214 1.6 6.4 0.00 0.00 0.00 74 1013.3
20260503025051 11 205 1.6 6.4 0.00 0.00 0.00 75 1013.3
20260503024601 11 204 0.0 4.8 0.00 0.00 0.00 76 1013.4
20260503024051 11 0 0.0 4.8 0.00 0.00 0.00 76 1013.4
20260503023549 11 0 0.0 4.8 0.00 0.00 0.00 76 1013.4
20260503023056 10 0 0.0 4.8 0.00 0.00 0.00 77 1013.4
20260503022551 10 212 0.0 4.8 0.00 0.00 0.00 78 1013.4
20260503022051 11 0 0.0 4.8 0.00 0.00 0.00 78 1013.4
20260503021559 11 0 0.0 4.8 0.00 0.00 0.00 78 1013.4
20260503021048 10 168 1.6 4.8 0.00 0.00 0.00 80 1013.5
20260503020548 10 176 1.6 4.8 0.00 0.00 0.00 81 1013.6
20260503020055 10 0 0.0 4.8 0.00 0.00 0.00 81 1013.5
20260503015551 10 0 1.6 6.4 0.00 0.00 0.00 81 1013.6
20260503015053 10 0 0.0 6.4 0.00 0.00 0.00 80 1013.6
20260503014551 10 179 3.2 6.4 0.00 0.00 0.00 80 1013.7
20260503014051 11 227 0.0 3.2 0.00 0.00 0.00 80 1013.7
20260503013551 11 0 0.0 0.0 0.00 0.00 0.00 80 1013.6
20260503013051 11 0 0.0 0.0 0.00 0.00 0.00 79 1013.5
20260503012621 11 0 0.0 0.0 0.00 0.00 0.00 79 1013.5
20260503012052 11 0 0.0 1.6 0.00 0.00 0.00 77 1013.5
20260503011603 12 0 0.0 3.2 0.00 0.00 0.00 76 1013.7
20260503011054 12 0 0.0 4.8 0.00 0.00 0.00 75 1013.7
20260503010551 12 0 1.6 6.4 0.00 0.00 0.00 74 1013.7
20260503010050 12 148 1.6 6.4 0.00 0.00 0.00 74 1013.8
20260503005551 12 169 3.2 6.4 0.00 0.00 0.00 74 1013.9
20260503005048 12 164 1.6 6.4 0.00 0.00 0.00 76 1014.0
20260503004610 12 184 3.2 6.4 0.00 0.00 0.00 77 1014.0
20260503004050 12 166 3.2 6.4 0.00 0.00 0.00 77 1014.0
20260503003548 12 153 0.0 3.2 0.00 0.00 0.00 76 1014.0
20260503003055 12 152 0.0 3.2 0.00 0.00 0.00 74 1014.1
20260503002551 13 0 0.0 3.2 0.00 0.00 0.00 73 1014.2
20260503002053 13 251 1.6 3.2 0.00 0.00 0.00 73 1014.3
20260503001553 13 0 0.0 3.2 0.00 0.00 0.00 74 1014.2
20260503001052 13 0 0.0 3.2 0.00 0.00 0.00 72 1014.4
20260503000551 13 184 0.0 6.4 0.00 0.00 0.00 71 1014.5
20260503000053 13 219 1.6 6.4 0.00 0.00 0.00 71 1014.5
20260502235550 13 188 3.2 6.4 0.00 0.00 0.00 72 1014.5
20260502235051 13 196 3.2 6.4 0.00 0.00 0.00 74 1014.6
20260502234554 13 219 1.6 4.8 0.00 0.00 0.00 75 1014.6
20260502234051 13 211 1.6 4.8 0.00 0.00 0.00 75 1014.5
20260502233551 13 205 1.6 4.8 0.00 0.00 0.00 75 1014.6
20260502233051 13 0 1.6 6.4 0.00 0.00 0.00 75 1014.6
20260502232552 13 170 1.6 6.4 0.00 0.00 0.00 74 1014.6
20260502232048 13 181 1.6 6.4 0.00 0.00 0.00 74 1014.6
20260502231557 13 197 1.6 4.8 0.00 0.00 0.00 73 1014.7
20260502231052 13 195 1.6 4.8 0.00 0.00 0.00 73 1014.6
20260502230551 13 207 1.6 6.4 0.00 0.00 0.00 73 1014.7
20260502230054 13 190 1.6 6.4 0.00 0.00 0.00 73 1014.8
20260502225551 14 184 3.2 6.4 0.00 0.00 0.00 72 1014.7
20260502225050 14 168 1.6 6.4 0.00 0.00 0.00 72 1014.7
20260502224557 14 180 3.2 6.4 0.00 0.00 0.00 72 1014.7
20260502224050 14 166 1.6 6.4 0.00 0.00 0.00 72 1014.9
20260502223551 14 210 3.2 8.0 0.00 0.00 0.00 73 1014.9
20260502223059 13 212 3.2 8.0 0.00 0.00 0.00 74 1014.9
20260502222552 13 195 1.6 4.8 0.00 0.00 0.00 77 1014.9
20260502222052 13 0 1.6 6.4 0.00 0.00 0.00 79 1014.9
20260502221604 12 188 1.6 6.4 0.00 0.00 0.00 81 1014.9
20260502221048 12 204 1.6 4.8 0.00 0.00 0.00 82 1014.9
20260502220555 12 217 1.6 3.2 0.00 0.00 0.00 84 1015.0
20260502220141 12 183 0.0 3.2 0.00 0.00 0.00 84 1015.0
20260502215549 12 184 0.0 3.2 0.00 0.00 0.00 84 1015.0
20260502215050 12 212 0.0 3.2 0.00 0.00 0.00 85 1015.0
20260502214554 12 0 0.0 0.0 0.00 0.00 0.00 85 1015.0
20260502214051 12 0 0.0 0.0 0.00 0.00 0.00 85 1015.1
20260502213551 12 0 0.0 0.0 0.00 0.00 0.00 85 1015.0
20260502213101 12 0 0.0 0.0 0.00 0.00 0.00 85 1015.0
20260502212552 12 0 0.0 0.0 0.00 0.00 0.00 85 1015.0
20260502212053 12 0 0.0 0.0 0.00 0.00 0.00 85 1015.1
20260502211555 12 0 0.0 0.0 0.00 0.00 0.00 85 1015.1
20260502211052 12 0 0.0 0.0 0.00 0.00 0.00 85 1015.1
20260502210551 12 0 0.0 0.0 0.00 0.00 0.00 85 1015.1
20260502205551 12 0 0.0 0.0 0.00 0.00 0.00 85 1015.2
20260502205051 12 0 0.0 0.0 0.00 0.00 0.00 84 1015.2
20260502204606 12 0 0.0 0.0 0.00 0.00 0.00 84 1015.2
20260502204051 12 0 0.0 0.0 0.00 0.00 0.00 84 1015.3
20260502203550 12 0 0.0 0.0 0.00 0.00 0.00 84 1015.3
20260502203105 12 0 0.0 0.0 0.00 0.00 0.00 84 1015.2
20260502202552 13 0 0.0 0.0 0.00 0.00 0.00 83 1015.2
20260502202051 13 0 0.0 1.6 0.00 0.00 0.00 84 1015.2
20260502201556 13 0 0.0 1.6 0.00 0.00 0.00 84 1015.2
20260502201048 13 0 0.0 3.2 0.00 0.00 0.00 84 1015.3
20260502200551 13 0 0.0 3.2 0.00 0.00 0.00 84 1015.3
20260502200054 13 0 0.0 1.6 0.00 0.00 0.00 83 1015.3
20260502195550 13 0 0.0 1.6 0.00 0.00 0.00 83 1015.2
20260502195050 13 0 0.0 1.6 0.00 0.00 0.00 83 1015.3
20260502194557 13 0 0.0 3.2 0.00 0.00 0.00 82 1015.3
20260502194051 13 0 0.0 3.2 0.00 0.00 0.00 81 1015.2
20260502193551 14 0 0.0 4.8 0.00 0.00 0.00 81 1015.2
20260502193048 14 233 0.0 4.8 0.00 0.00 0.00 81 1015.3
20260502192554 14 269 0.0 3.2 0.00 0.00 0.00 82 1015.4
20260502192049 14 0 0.0 0.0 0.00 0.00 0.00 82 1015.3
20260502191605 15 0 0.0 1.6 0.00 0.00 0.00 81 1015.3
20260502191052 15 0 0.0 1.6 0.00 0.00 0.00 81 1015.2
20260502190550 15 0 0.0 3.2 0.00 0.00 0.00 81 1015.2
20260502190101 15 105 0.0 3.2 0.00 0.00 0.00 80 1015.2
20260502185551 15 0 0.0 3.2 0.00 0.00 0.00 79 1015.1
20260502185048 16 0 0.0 3.2 0.00 0.00 0.00 79 1015.1
20260502184551 16 147 0.0 4.8 0.00 0.00 0.00 78 1015.2
20260502184048 16 185 1.6 4.8 0.00 0.00 0.00 78 1015.3
20260502183551 16 167 0.0 4.8 0.00 0.00 0.00 78 1015.3
20260502183059 16 0 0.0 6.4 0.00 0.00 0.00 78 1015.3
20260502182548 16 0 1.6 6.4 0.00 0.00 0.00 78 1015.3
20260502182050 16 163 0.0 3.2 0.00 0.00 0.00 78 1015.3
20260502181548 16 0 0.0 3.2 0.00 0.00 0.00 78 1015.2
20260502181050 16 138 0.0 3.2 0.00 0.00 0.00 78 1015.2
20260502180550 16 0 1.6 3.2 0.00 0.00 0.00 78 1015.2
20260502164048 17 241 0.0 6.4 0.00 0.00 0.00 71 1015.5
20260502163550 18 245 1.6 6.4 0.00 0.00 0.00 71 1015.5
20260502163110 18 229 1.6 9.7 0.00 0.00 0.00 70 1015.6
20260502162551 18 0 3.2 11.3 0.00 0.00 0.00 70 1015.8
20260502162050 17 308 4.8 11.3 0.00 0.00 0.00 70 1015.8
20260502161551 18 290 6.4 11.3 0.00 0.00 0.00 71 1015.8
20260502161048 18 324 4.8 12.9 0.00 0.00 0.00 70 1015.9
20260502160550 18 286 8.0 12.9 0.00 0.00 0.00 69 1016.0
20260502152052 21 206 4.8 16.1 0.00 0.00 0.00 57 1016.3
20260502151558 21 214 6.4 16.1 0.00 0.00 0.00 56 1016.4
20260502151050 21 182 4.8 14.5 0.00 0.00 0.00 56 1016.5
20260502150549 21 200 6.4 16.1 0.00 0.00 0.00 57 1016.1
20260502150106 21 171 6.4 25.7 0.00 0.00 0.00 57 1016.2
20260502130550 22 238 11.3 27.4 0.00 0.00 0.00 55 1018.1
20260502130107 22 137 6.4 27.4 0.00 0.00 0.00 55 1018.2
20260502123550 22 129 8.0 14.5 0.00 0.00 0.00 53 1018.3
20260502123104 22 183 6.4 19.3 0.00 0.00 0.00 53 1018.4
20260502122550 22 213 8.0 19.3 0.00 0.00 0.00 51 1018.4
20260502122051 23 173 4.8 19.3 0.00 0.00 0.00 54 1018.5
20260502121600 22 245 4.8 19.3 0.00 0.00 0.00 51 1018.5
20260502121053 22 302 9.7 19.3 0.00 0.00 0.00 52 1018.6
20260502120550 22 205 4.8 20.9 0.00 0.00 0.00 52 1018.8
20260502115554 22 202 4.8 17.7 0.00 0.00 0.00 53 1019.0
20260502115050 22 182 9.7 20.9 0.00 0.00 0.00 52 1019.1
20260502114552 22 150 6.4 20.9 0.00 0.00 0.00 52 1019.2
20260502114050 22 192 6.4 19.3 0.00 0.00 0.00 55 1019.4
20260502113552 21 205 9.7 19.3 0.00 0.00 0.00 55 1019.4
20260502113055 21 126 9.7 17.7 0.00 0.00 0.00 55 1019.5
20260502112550 21 193 1.6 16.1 0.00 0.00 0.00 56 1019.5
20260502112048 21 149 8.0 16.1 0.00 0.00 0.00 56 1019.6
20260502111554 21 210 8.0 16.1 0.00 0.00 0.00 56 1019.6
20260502111054 21 164 4.8 19.3 0.00 0.00 0.00 56 1019.6
20260502110549 21 143 9.7 19.3 0.00 0.00 0.00 56 1019.7
20260502110051 21 192 9.7 19.3 0.00 0.00 0.00 56 1019.7
20260502105547 21 169 8.0 19.3 0.00 0.00 0.00 56 1019.7
20260502105052 20 158 6.4 17.7 0.00 0.00 0.00 56 1019.7
20260502104549 20 166 9.7 17.7 0.00 0.00 0.00 55 1019.8
20260502104050 20 165 9.7 17.7 0.00 0.00 0.00 56 1019.8
20260502103550 20 210 9.7 17.7 0.00 0.00 0.00 55 1019.8
20260502103049 20 168 9.7 16.1 0.00 0.00 0.00 56 1019.8
20260502102549 20 200 4.8 11.3 0.00 0.00 0.00 57 1019.8
20260502102050 19 122 1.6 12.9 0.00 0.00 0.00 58 1019.8
20260502101551 20 172 6.4 12.9 0.00 0.00 0.00 59 1019.9
20260502101053 20 166 6.4 12.9 0.00 0.00 0.00 56 1019.9
20260502100550 20 230 4.8 14.5 0.00 0.00 0.00 59 1020.0
20260502091053 19 160 1.6 8.0 0.00 0.00 0.00 62 1020.2
20260502090552 18 113 3.2 8.0 0.00 0.00 0.00 64 1020.1
20260502071052 13 148 0.0 4.8 0.00 0.00 0.00 73 1020.5
20260502070552 12 240 0.0 4.8 0.00 0.00 0.00 76 1020.6
20260502070100 11 0 0.0 4.8 0.00 0.00 0.00 76 1020.6
20260502065552 11 0 0.0 4.8 0.00 0.00 0.00 77 1020.5
20260502065051 11 0 0.0 4.8 0.00 0.00 0.00 77 1020.4
20260502064556 11 78 0.0 4.8 0.00 0.00 0.00 78 1020.4
20260502064051 11 0 0.0 4.8 0.00 0.00 0.00 78 1020.4
20260502063555 10 57 1.6 6.4 0.00 0.00 0.00 80 1020.3
20260502063053 10 78 0.0 6.4 0.00 0.00 0.00 80 1020.2
20260502062551 9 78 1.6 6.4 0.00 0.00 0.00 81 1020.2
20260502062053 8 150 0.0 6.4 0.00 0.00 0.00 80 1020.5
20260502061551 8 55 1.6 6.4 0.00 0.00 0.00 79 1020.3
20260502061052 8 0 1.6 9.7 0.00 0.00 0.00 79 1020.3
20260502060552 8 72 1.6 9.7 0.00 0.00 0.00 79 1020.2
20260502060101 9 86 4.8 9.7 0.00 0.00 0.00 78 1020.4
20260502055556 9 60 0.0 3.2 0.00 0.00 0.00 78 1020.5
20260502055051 9 0 0.0 1.6 0.00 0.00 0.00 77 1020.7
20260502054558 9 0 0.0 4.8 0.00 0.00 0.00 75 1020.8
20260502054052 9 0 0.0 4.8 0.00 0.00 0.00 75 1021.0